"datetime","temp","dp","rain_mm","uv","solar","mb","wind_mph","gust_mph","windchill","rh"
"2022-07-13 00:00:00",20.7,17.7,0.0,0.0,0,1020.1,0,0,"",83
"2022-07-13 00:01:00",20.6,17.6,0.0,0.0,0,1020.1,0,0,"",83
"2022-07-13 00:02:00",20.6,17.6,0.0,0.0,0,1020.1,0,1,"",83
"2022-07-13 00:03:00",20.6,17.6,0.0,0.0,0,1020.0,0,0,"",83
"2022-07-13 00:04:00",20.6,17.6,0.0,0.0,0,1020.1,0,0,"",83
"2022-07-13 00:05:00",20.6,17.6,0.0,0.0,0,1020.1,0,0,"",83
"2022-07-13 00:06:00",20.6,17.6,0.0,0.0,0,1020.1,0,1,"",83
"2022-07-13 00:07:00",20.6,17.6,0.0,0.0,0,1020.1,0,0,"",83
"2022-07-13 00:08:00",20.5,17.5,0.0,0.0,0,1020.1,0,0,"",83
"2022-07-13 00:09:00",20.5,17.5,0.0,0.0,0,1020.1,0,0,"",83
"2022-07-13 00:10:00",20.4,17.4,0.0,0.0,0,1020.1,1,1,"",83
"2022-07-13 00:11:00",20.4,17.4,0.0,0.0,0,1020.1,1,1,"",83
"2022-07-13 00:12:00",20.4,17.4,0.0,0.0,0,1020.1,1,1,"",83
"2022-07-13 00:13:00",20.3,17.3,0.0,0.0,0,1020.1,0,1,"",83
"2022-07-13 00:14:00",20.3,17.3,0.0,0.0,0,1020.0,0,1,"",83
"2022-07-13 00:15:00",20.3,17.5,0.0,0.0,0,1020.0,0,1,"",84
"2022-07-13 00:16:00",20.3,17.5,0.0,0.0,0,1020.0,0,1,"",84
"2022-07-13 00:17:00",20.3,17.5,0.0,0.0,0,1020.0,0,1,"",84
"2022-07-13 00:18:00",20.2,17.4,0.0,0.0,0,1020.0,0,1,"",84
"2022-07-13 00:19:00",20.2,17.4,0.0,0.0,0,1020.0,0,1,"",84
"2022-07-13 00:20:00",20.2,17.4,0.0,0.0,0,1020.0,0,1,"",84
"2022-07-13 00:21:00",20.2,17.4,0.0,0.0,0,1020.1,0,0,"",84
"2022-07-13 00:22:00",20.3,17.5,0.0,0.0,0,1020.0,0,0,"",84
"2022-07-13 00:23:00",20.3,17.7,0.0,0.0,0,1020.0,0,0,"",85
"2022-07-13 00:24:00",20.3,17.7,0.0,0.0,0,1020.1,0,0,"",85
"2022-07-13 00:25:00",20.3,17.7,0.0,0.0,0,1020.0,0,0,"",85
"2022-07-13 00:26:00",20.3,17.7,0.0,0.0,0,1020.0,0,0,"",85
"2022-07-13 00:27:00",20.3,17.7,0.0,0.0,0,1020.0,0,0,"",85
"2022-07-13 00:28:00",20.3,17.5,0.0,0.0,0,1020.0,0,1,"",84
"2022-07-13 00:29:00",20.2,17.4,0.0,0.0,0,1020.0,0,0,"",84
"2022-07-13 00:30:00",20.2,17.4,0.0,0.0,0,1020.0,0,1,"",84
"2022-07-13 00:31:00",20.2,17.4,0.0,0.0,0,1020.1,0,1,"",84
"2022-07-13 00:32:00",20.2,17.4,0.0,0.0,0,1020.0,1,1,"",84
"2022-07-13 00:33:00",20.2,17.4,0.0,0.0,0,1020.0,1,2,"",84
"2022-07-13 00:34:00",20.2,17.4,0.0,0.0,0,1020.0,1,2,"",84
"2022-07-13 00:35:00",20.2,17.4,0.0,0.0,0,1020.1,1,1,"",84
"2022-07-13 00:36:00",20.2,17.4,0.0,0.0,0,1020.0,0,1,"",84
"2022-07-13 00:37:00",20.1,17.3,0.0,0.0,0,1020.0,0,1,"",84
"2022-07-13 00:38:00",20.1,17.3,0.0,0.0,0,1020.0,0,1,"",84
"2022-07-13 00:39:00",20.1,17.3,0.0,0.0,0,1020.0,0,0,"",84
"2022-07-13 00:40:00",20.1,17.3,0.0,0.0,0,1020.0,0,0,"",84
"2022-07-13 00:41:00",20.1,17.3,0.0,0.0,0,1020.1,0,1,"",84
"2022-07-13 00:42:00",20.1,17.3,0.0,0.0,0,1020.1,0,1,"",84
"2022-07-13 00:43:00",20.1,17.3,0.0,0.0,0,1020.1,1,1,"",84
"2022-07-13 00:44:00",20.1,17.3,0.0,0.0,0,1020.1,1,2,"",84
"2022-07-13 00:45:00",20.1,17.5,0.0,0.0,0,1020.1,1,2,"",85
"2022-07-13 00:46:00",20.0,17.4,0.0,0.0,0,1020.1,1,2,"",85
"2022-07-13 00:47:00",20.0,17.4,0.0,0.0,0,1020.1,1,1,"",85
"2022-07-13 00:48:00",20.0,17.4,0.0,0.0,0,1020.1,1,2,"",85
"2022-07-13 00:49:00",20.0,17.6,0.0,0.0,0,1020.1,1,1,"",86
"2022-07-13 00:50:00",20.1,17.5,0.0,0.0,0,1020.0,0,1,"",85
"2022-07-13 00:51:00",20.1,17.5,0.0,0.0,0,1020.0,0,1,"",85
"2022-07-13 00:52:00",20.1,17.5,0.0,0.0,0,1020.1,0,1,"",85
"2022-07-13 00:53:00",20.1,17.5,0.0,0.0,0,1020.0,1,2,"",85
"2022-07-13 00:54:00",20.1,17.5,0.0,0.0,0,1020.0,0,1,"",85
"2022-07-13 00:55:00",20.1,17.5,0.0,0.0,0,1020.0,0,1,"",85
"2022-07-13 00:56:00",20.1,17.5,0.0,0.0,0,1020.0,0,0,"",85
"2022-07-13 00:57:00",20.1,17.5,0.0,0.0,0,1019.9,0,1,"",85
"2022-07-13 00:58:00",20.1,17.3,0.0,0.0,0,1019.9,0,0,"",84
"2022-07-13 00:59:00",20.1,17.5,0.0,0.0,0,1020.0,0,0,"",85
"2022-07-13 01:00:00",20.1,17.5,0.0,0.0,0,1020.0,0,0,"",85
"2022-07-13 01:01:00",20.1,17.5,0.0,0.0,0,1020.0,0,0,"",85
"2022-07-13 01:02:00",20.1,17.5,0.0,0.0,0,1020.0,0,1,"",85
"2022-07-13 01:03:00",20.0,17.4,0.0,0.0,0,1020.0,1,1,"",85
"2022-07-13 01:04:00",19.9,17.3,0.0,0.0,0,1019.9,0,1,"",85
"2022-07-13 01:05:00",19.9,17.3,0.0,0.0,0,1019.9,1,1,"",85
"2022-07-13 01:06:00",19.8,17.2,0.0,0.0,0,1019.9,0,1,"",85
"2022-07-13 01:07:00",19.8,17.2,0.0,0.0,0,1019.9,1,1,"",85
"2022-07-13 01:08:00",19.7,17.1,0.0,0.0,0,1019.9,0,1,"",85
"2022-07-13 01:09:00",19.7,17.1,0.0,0.0,0,1019.9,0,1,"",85
"2022-07-13 01:10:00",19.7,17.1,0.0,0.0,0,1019.9,0,1,"",85
"2022-07-13 01:11:00",19.7,17.1,0.0,0.0,0,1019.9,0,0,"",85
"2022-07-13 01:12:00",19.7,17.1,0.0,0.0,0,1019.9,0,0,"",85
"2022-07-13 01:13:00",19.7,17.1,0.0,0.0,0,1019.9,0,0,"",85
"2022-07-13 01:14:00",19.6,17.0,0.0,0.0,0,1019.9,0,1,"",85
"2022-07-13 01:15:00",19.6,17.0,0.0,0.0,0,1019.9,1,1,"",85
"2022-07-13 01:16:00",19.6,17.0,0.0,0.0,0,1019.9,1,1,"",85
"2022-07-13 01:17:00",19.6,17.2,0.0,0.0,0,1019.9,1,1,"",86
"2022-07-13 01:18:00",19.5,17.1,0.0,0.0,0,1019.9,0,1,"",86
"2022-07-13 01:19:00",19.5,17.1,0.0,0.0,0,1019.9,0,1,"",86
"2022-07-13 01:20:00",19.5,17.1,0.0,0.0,0,1019.9,0,1,"",86
"2022-07-13 01:21:00",19.5,17.1,0.0,0.0,0,1019.9,0,0,"",86
"2022-07-13 01:22:00",19.4,17.0,0.0,0.0,0,1019.8,0,0,"",86
"2022-07-13 01:23:00",19.4,17.0,0.0,0.0,0,1019.9,0,1,"",86
"2022-07-13 01:24:00",19.4,17.0,0.0,0.0,0,1019.9,0,0,"",86
"2022-07-13 01:25:00",19.4,17.0,0.0,0.0,0,1019.9,0,0,"",86
"2022-07-13 01:26:00",19.4,17.0,0.0,0.0,0,1019.8,0,0,"",86
"2022-07-13 01:27:00",19.4,17.0,0.0,0.0,0,1019.8,0,0,"",86
"2022-07-13 01:28:00",19.4,17.0,0.0,0.0,0,1019.9,0,1,"",86
"2022-07-13 01:29:00",19.4,17.0,0.0,0.0,0,1019.8,0,1,"",86
"2022-07-13 01:30:00",19.3,16.9,0.0,0.0,0,1019.8,0,1,"",86
"2022-07-13 01:31:00",19.3,16.9,0.0,0.0,0,1019.8,0,0,"",86
"2022-07-13 01:32:00",19.3,16.9,0.0,0.0,0,1019.8,0,1,"",86
"2022-07-13 01:33:00",19.3,16.9,0.0,0.0,0,1019.8,0,0,"",86
"2022-07-13 01:34:00",19.3,16.9,0.0,0.0,0,1019.8,0,0,"",86
"2022-07-13 01:35:00",19.3,16.9,0.0,0.0,0,1019.8,0,0,"",86
"2022-07-13 01:36:00",19.3,16.9,0.0,0.0,0,1019.8,0,1,"",86
"2022-07-13 01:37:00",19.3,16.9,0.0,0.0,0,1019.8,0,1,"",86
"2022-07-13 01:38:00",19.3,16.9,0.0,0.0,0,1019.8,0,1,"",86
"2022-07-13 01:39:00",19.2,16.8,0.0,0.0,0,1019.8,0,1,"",86
"2022-07-13 01:40:00",19.2,17.0,0.0,0.0,0,1019.7,0,1,"",87
"2022-07-13 01:41:00",19.2,17.0,0.0,0.0,0,1019.8,0,1,"",87
"2022-07-13 01:42:00",19.2,17.0,0.0,0.0,0,1019.8,0,0,"",87
"2022-07-13 01:43:00",19.2,17.0,0.0,0.0,0,1019.8,0,1,"",87
"2022-07-13 01:44:00",19.2,17.0,0.0,0.0,0,1019.8,0,1,"",87
"2022-07-13 01:45:00",19.2,17.0,0.0,0.0,0,1019.7,0,1,"",87
"2022-07-13 01:46:00",19.2,17.0,0.0,0.0,0,1019.7,0,1,"",87
"2022-07-13 01:47:00",19.2,17.0,0.0,0.0,0,1019.8,0,0,"",87
"2022-07-13 01:48:00",19.1,16.9,0.0,0.0,0,1019.7,0,0,"",87
"2022-07-13 01:49:00",19.1,16.9,0.0,0.0,0,1019.7,0,0,"",87
"2022-07-13 01:50:00",19.1,16.9,0.0,0.0,0,1019.7,0,0,"",87
"2022-07-13 01:51:00",19.1,16.9,0.0,0.0,0,1019.7,0,0,"",87
"2022-07-13 01:52:00",19.1,16.9,0.0,0.0,0,1019.7,0,0,"",87
"2022-07-13 01:53:00",19.1,16.9,0.0,0.0,0,1019.7,0,0,"",87
"2022-07-13 01:54:00",19.1,16.9,0.0,0.0,0,1019.7,0,0,"",87
"2022-07-13 01:55:00",19.0,16.8,0.0,0.0,0,1019.7,0,0,"",87
"2022-07-13 01:56:00",19.0,16.8,0.0,0.0,0,1019.7,0,0,"",87
"2022-07-13 01:57:00",19.1,16.9,0.0,0.0,0,1019.7,0,1,"",87
"2022-07-13 01:58:00",19.1,16.9,0.0,0.0,0,1019.7,0,0,"",87
"2022-07-13 01:59:00",19.1,16.9,0.0,0.0,0,1019.7,0,0,"",87
"2022-07-13 02:00:00",19.0,16.8,0.0,0.0,0,1019.7,0,0,"",87
"2022-07-13 02:01:00",19.0,16.8,0.0,0.0,0,1019.7,0,0,"",87
"2022-07-13 02:02:00",19.0,16.8,0.0,0.0,0,1019.7,0,0,"",87
"2022-07-13 02:03:00",18.9,16.7,0.0,0.0,0,1019.7,0,0,"",87
"2022-07-13 02:04:00",18.9,16.7,0.0,0.0,0,1019.7,0,0,"",87
"2022-07-13 02:05:00",18.9,16.7,0.0,0.0,0,1019.6,0,1,"",87
"2022-07-13 02:06:00",18.9,16.9,0.0,0.0,0,1019.7,0,1,"",88
"2022-07-13 02:07:00",18.9,16.7,0.0,0.0,0,1019.6,0,0,"",87
"2022-07-13 02:08:00",18.9,16.7,0.0,0.0,0,1019.7,0,1,"",87
"2022-07-13 02:09:00",18.9,16.9,0.0,0.0,0,1019.7,0,0,"",88
"2022-07-13 02:10:00",18.9,16.9,0.0,0.0,0,1019.7,0,0,"",88
"2022-07-13 02:11:00",18.9,16.9,0.0,0.0,0,1019.7,0,0,"",88
"2022-07-13 02:12:00",18.9,16.9,0.0,0.0,0,1019.6,0,1,"",88
"2022-07-13 02:13:00",18.8,16.8,0.0,0.0,0,1019.7,0,1,"",88
"2022-07-13 02:14:00",18.8,16.8,0.0,0.0,0,1019.6,0,1,"",88
"2022-07-13 02:15:00",18.8,16.8,0.0,0.0,0,1019.7,0,1,"",88
"2022-07-13 02:16:00",18.8,16.8,0.0,0.0,0,1019.6,0,0,"",88
"2022-07-13 02:17:00",18.8,16.8,0.0,0.0,0,1019.7,0,0,"",88
"2022-07-13 02:18:00",18.8,16.8,0.0,0.0,0,1019.7,0,0,"",88
"2022-07-13 02:19:00",18.8,16.8,0.0,0.0,0,1019.6,0,0,"",88
"2022-07-13 02:20:00",18.8,16.8,0.0,0.0,0,1019.6,0,0,"",88
"2022-07-13 02:21:00",18.8,16.8,0.0,0.0,0,1019.7,0,0,"",88
"2022-07-13 02:22:00",18.8,16.8,0.0,0.0,0,1019.7,0,0,"",88
"2022-07-13 02:23:00",18.7,16.7,0.0,0.0,0,1019.6,0,1,"",88
"2022-07-13 02:24:00",18.7,16.7,0.0,0.0,0,1019.6,0,0,"",88
"2022-07-13 02:25:00",18.7,16.7,0.0,0.0,0,1019.6,0,1,"",88
"2022-07-13 02:26:00",18.7,16.7,0.0,0.0,0,1019.6,0,0,"",88
"2022-07-13 02:27:00",18.7,16.7,0.0,0.0,0,1019.6,0,0,"",88
"2022-07-13 02:28:00",18.7,16.7,0.0,0.0,0,1019.6,0,0,"",88
"2022-07-13 02:29:00",18.7,16.7,0.0,0.0,0,1019.7,0,0,"",88
"2022-07-13 02:30:00",18.6,16.6,0.0,0.0,0,1019.6,0,0,"",88
"2022-07-13 02:31:00",18.6,16.6,0.0,0.0,0,1019.6,0,1,"",88
"2022-07-13 02:32:00",18.6,16.6,0.0,0.0,0,1019.6,0,1,"",88
"2022-07-13 02:33:00",18.6,16.6,0.0,0.0,0,1019.7,0,1,"",88
"2022-07-13 02:34:00",18.6,16.6,0.0,0.0,0,1019.7,0,1,"",88
"2022-07-13 02:35:00",18.6,16.6,0.0,0.0,0,1019.6,0,1,"",88
"2022-07-13 02:36:00",18.6,16.6,0.0,0.0,0,1019.6,0,0,"",88
"2022-07-13 02:37:00",18.4,16.4,0.0,0.0,0,1019.6,0,0,"",88
"2022-07-13 02:38:00",18.4,16.4,0.0,0.0,0,1019.6,0,0,"",88
"2022-07-13 02:39:00",18.4,16.4,0.0,0.0,0,1019.6,0,1,"",88
"2022-07-13 02:40:00",18.4,16.6,0.0,0.0,0,1019.6,0,0,"",89
"2022-07-13 02:41:00",18.4,16.6,0.0,0.0,0,1019.6,0,0,"",89
"2022-07-13 02:42:00",18.5,16.7,0.0,0.0,0,1019.6,0,0,"",89
"2022-07-13 02:43:00",18.5,16.7,0.0,0.0,0,1019.6,0,0,"",89
"2022-07-13 02:44:00",18.5,16.7,0.0,0.0,0,1019.6,0,1,"",89
"2022-07-13 02:45:00",18.5,16.7,0.0,0.0,0,1019.6,0,1,"",89
"2022-07-13 02:46:00",18.4,16.6,0.0,0.0,0,1019.6,0,1,"",89
"2022-07-13 02:47:00",18.4,16.6,0.0,0.0,0,1019.6,0,1,"",89
"2022-07-13 02:48:00",18.4,16.6,0.0,0.0,0,1019.6,0,1,"",89
"2022-07-13 02:49:00",18.4,16.6,0.0,0.0,0,1019.6,0,1,"",89
"2022-07-13 02:50:00",18.4,16.6,0.0,0.0,0,1019.6,0,1,"",89
"2022-07-13 02:51:00",18.4,16.6,0.0,0.0,0,1019.6,0,1,"",89
"2022-07-13 02:52:00",18.4,16.6,0.0,0.0,0,1019.6,1,2,"",89
"2022-07-13 02:53:00",18.4,16.6,0.0,0.0,0,1019.6,1,1,"",89
"2022-07-13 02:54:00",18.4,16.6,0.0,0.0,0,1019.6,1,1,"",89
"2022-07-13 02:55:00",18.4,16.6,0.0,0.0,0,1019.6,0,1,"",89
"2022-07-13 02:56:00",18.4,16.6,0.0,0.0,0,1019.5,0,1,"",89
"2022-07-13 02:57:00",18.5,16.7,0.0,0.0,0,1019.5,0,0,"",89
"2022-07-13 02:58:00",18.4,16.6,0.0,0.0,0,1019.5,0,0,"",89
"2022-07-13 02:59:00",18.5,16.7,0.0,0.0,0,1019.4,0,1,"",89
"2022-07-13 03:00:00",18.6,16.8,0.0,0.0,0,1019.4,0,0,"",89
"2022-07-13 03:01:00",18.6,16.8,0.0,0.0,0,1019.5,0,0,"",89
"2022-07-13 03:02:00",18.6,16.8,0.0,0.0,0,1019.6,1,1,"",89
"2022-07-13 03:03:00",18.6,16.8,0.0,0.0,0,1019.6,0,1,"",89
"2022-07-13 03:04:00",18.6,16.8,0.0,0.0,0,1019.4,0,1,"",89
"2022-07-13 03:05:00",18.5,16.7,0.0,0.0,0,1019.4,0,0,"",89
"2022-07-13 03:06:00",18.4,16.6,0.0,0.0,0,1019.5,0,1,"",89
"2022-07-13 03:07:00",18.4,16.6,0.0,0.0,0,1019.4,0,1,"",89
"2022-07-13 03:08:00",18.4,16.6,0.0,0.0,0,1019.5,0,1,"",89
"2022-07-13 03:09:00",18.4,16.6,0.0,0.0,0,1019.5,0,0,"",89
"2022-07-13 03:10:00",18.4,16.6,0.0,0.0,0,1019.5,0,0,"",89
"2022-07-13 03:11:00",18.4,16.6,0.0,0.0,0,1019.5,0,0,"",89
"2022-07-13 03:12:00",18.3,16.5,0.0,0.0,0,1019.5,0,1,"",89
"2022-07-13 03:13:00",18.3,16.5,0.0,0.0,0,1019.5,0,1,"",89
"2022-07-13 03:14:00",18.3,16.5,0.0,0.0,0,1019.5,0,1,"",89
"2022-07-13 03:15:00",18.3,16.5,0.0,0.0,0,1019.5,0,1,"",89
"2022-07-13 03:16:00",18.3,16.5,0.0,0.0,0,1019.5,0,1,"",89
"2022-07-13 03:17:00",18.3,16.5,0.0,0.0,0,1019.5,0,1,"",89
"2022-07-13 03:18:00",18.3,16.5,0.0,0.0,0,1019.5,0,1,"",89
"2022-07-13 03:19:00",18.3,16.5,0.0,0.0,0,1019.5,0,1,"",89
"2022-07-13 03:20:00",18.3,16.5,0.0,0.0,0,1019.5,0,1,"",89
"2022-07-13 03:21:00",18.3,16.5,0.0,0.0,0,1019.5,1,1,"",89
"2022-07-13 03:22:00",18.3,16.5,0.0,0.0,0,1019.5,0,1,"",89
"2022-07-13 03:23:00",18.3,16.5,0.0,0.0,0,1019.5,0,1,"",89
"2022-07-13 03:24:00",18.3,16.5,0.0,0.0,0,1019.5,0,1,"",89
"2022-07-13 03:25:00",18.3,16.5,0.0,0.0,0,1019.5,0,1,"",89
"2022-07-13 03:26:00",18.3,16.5,0.0,0.0,0,1019.5,0,1,"",89
"2022-07-13 03:27:00",18.4,16.6,0.0,0.0,0,1019.6,0,1,"",89
"2022-07-13 03:28:00",18.4,16.6,0.0,0.0,0,1019.5,0,1,"",89
"2022-07-13 03:29:00",18.3,16.5,0.0,0.0,0,1019.5,0,1,"",89
"2022-07-13 03:30:00",18.3,16.5,0.0,0.0,0,1019.5,0,1,"",89
"2022-07-13 03:31:00",18.3,16.5,0.0,0.0,0,1019.5,0,0,"",89
"2022-07-13 03:32:00",18.3,16.5,0.0,0.0,0,1019.5,0,0,"",89
"2022-07-13 03:33:00",18.3,16.5,0.0,0.0,0,1019.5,0,0,"",89
"2022-07-13 03:34:00",18.3,16.5,0.0,0.0,0,1019.5,0,1,"",89
"2022-07-13 03:35:00",18.2,16.4,0.0,0.0,0,1019.4,0,1,"",89
"2022-07-13 03:36:00",18.2,16.4,0.0,0.0,0,1019.5,1,1,"",89
"2022-07-13 03:37:00",18.2,16.4,0.0,0.0,0,1019.5,0,1,"",89
"2022-07-13 03:38:00",18.2,16.5,0.0,0.0,0,1019.4,0,1,"",90
"2022-07-13 03:39:00",18.2,16.5,0.0,0.0,0,1019.5,0,0,"",90
"2022-07-13 03:40:00",18.2,16.5,0.0,0.0,0,1019.5,0,1,"",90
"2022-07-13 03:41:00",18.2,16.5,0.0,0.0,0,1019.5,0,0,"",90
"2022-07-13 03:42:00",18.1,16.4,0.0,0.0,0,1019.5,0,0,"",90
"2022-07-13 03:43:00",18.1,16.4,0.0,0.0,0,1019.4,0,1,"",90
"2022-07-13 03:44:00",18.1,16.4,0.0,0.0,0,1019.5,0,0,"",90
"2022-07-13 03:45:00",18.1,16.4,0.0,0.0,0,1019.5,0,0,"",90
"2022-07-13 03:46:00",18.1,16.4,0.0,0.0,0,1019.5,0,1,"",90
"2022-07-13 03:47:00",18.1,16.4,0.0,0.0,0,1019.5,0,0,"",90
"2022-07-13 03:48:00",18.0,16.3,0.0,0.0,0,1019.5,0,0,"",90
"2022-07-13 03:49:00",18.0,16.3,0.0,0.0,0,1019.4,0,0,"",90
"2022-07-13 03:50:00",18.0,16.3,0.0,0.0,0,1019.4,0,1,"",90
"2022-07-13 03:51:00",18.1,16.4,0.0,0.0,0,1019.4,0,0,"",90
"2022-07-13 03:52:00",18.1,16.4,0.0,0.0,0,1019.5,0,1,"",90
"2022-07-13 03:53:00",18.1,16.4,0.0,0.0,0,1019.5,0,0,"",90
"2022-07-13 03:54:00",18.1,16.4,0.0,0.0,0,1019.5,0,0,"",90
"2022-07-13 03:55:00",18.1,16.4,0.0,0.0,0,1019.5,0,1,"",90
"2022-07-13 03:56:00",18.1,16.4,0.0,0.0,0,1019.4,0,1,"",90
"2022-07-13 03:57:00",18.0,16.3,0.0,0.0,0,1019.4,0,1,"",90
"2022-07-13 03:58:00",18.0,16.3,0.0,0.0,0,1019.5,0,1,"",90
"2022-07-13 03:59:00",18.0,16.3,0.0,0.0,0,1019.4,0,1,"",90
"2022-07-13 04:00:00",17.9,16.2,0.0,0.0,0,1019.4,0,1,"",90
"2022-07-13 04:01:00",17.9,16.2,0.0,0.0,0,1019.4,0,1,"",90
"2022-07-13 04:02:00",17.9,16.4,0.0,0.0,0,1019.4,0,1,"",91
"2022-07-13 04:03:00",17.9,16.4,0.0,0.0,0,1019.4,0,1,"",91
"2022-07-13 04:04:00",17.9,16.4,0.0,0.0,0,1019.4,0,1,"",91
"2022-07-13 04:05:00",17.9,16.4,0.0,0.0,0,1019.4,0,1,"",91
"2022-07-13 04:06:00",17.9,16.4,0.0,0.0,0,1019.4,0,1,"",91
"2022-07-13 04:07:00",17.9,16.4,0.0,0.0,0,1019.4,0,1,"",91
"2022-07-13 04:08:00",17.9,16.4,0.0,0.0,0,1019.4,0,0,"",91
"2022-07-13 04:09:00",17.9,16.4,0.0,0.0,0,1019.4,0,0,"",91
"2022-07-13 04:10:00",17.8,16.3,0.0,0.0,0,1019.4,0,0,"",91
"2022-07-13 04:11:00",17.8,16.3,0.0,0.0,0,1019.4,0,0,"",91
"2022-07-13 04:12:00",17.8,16.3,0.0,0.0,0,1019.4,0,0,"",91
"2022-07-13 04:13:00",17.7,16.2,0.0,0.0,0,1019.4,0,1,"",91
"2022-07-13 04:14:00",17.7,16.2,0.0,0.0,0,1019.5,0,1,"",91
"2022-07-13 04:15:00",17.7,16.2,0.0,0.0,0,1019.4,0,1,"",91
"2022-07-13 04:16:00",17.7,16.2,0.0,0.0,0,1019.4,0,0,"",91
"2022-07-13 04:17:00",17.6,16.1,0.0,0.0,0,1019.4,0,0,"",91
"2022-07-13 04:18:00",17.6,16.1,0.0,0.0,0,1019.4,0,1,"",91
"2022-07-13 04:19:00",17.6,16.1,0.0,0.0,0,1019.4,0,0,"",91
"2022-07-13 04:20:00",17.6,16.1,0.0,0.0,0,1019.4,0,0,"",91
"2022-07-13 04:21:00",17.6,16.1,0.0,0.0,0,1019.4,0,0,"",91
"2022-07-13 04:22:00",17.6,16.1,0.0,0.0,0,1019.4,0,0,"",91
"2022-07-13 04:23:00",17.6,16.1,0.0,0.0,0,1019.5,0,1,"",91
"2022-07-13 04:24:00",17.6,16.1,0.0,0.0,0,1019.4,0,1,"",91
"2022-07-13 04:25:00",17.6,16.1,0.0,0.0,0,1019.4,0,1,"",91
"2022-07-13 04:26:00",17.6,16.1,0.0,0.0,0,1019.4,1,1,"",91
"2022-07-13 04:27:00",17.7,16.2,0.0,0.0,0,1019.5,0,1,"",91
"2022-07-13 04:28:00",17.7,16.2,0.0,0.0,0,1019.5,0,1,"",91
"2022-07-13 04:29:00",17.7,16.2,0.0,0.0,0,1019.5,0,0,"",91
"2022-07-13 04:30:00",17.7,16.2,0.0,0.0,0,1019.4,0,1,"",91
"2022-07-13 04:31:00",17.7,16.2,0.0,0.0,0,1019.4,0,0,"",91
"2022-07-13 04:32:00",17.7,16.2,0.0,0.0,0,1019.4,0,1,"",91
"2022-07-13 04:33:00",17.7,16.2,0.0,0.0,0,1019.4,0,1,"",91
"2022-07-13 04:34:00",17.7,16.2,0.0,0.0,0,1019.4,0,0,"",91
"2022-07-13 04:35:00",17.7,16.2,0.0,0.0,0,1019.4,0,0,"",91
"2022-07-13 04:36:00",17.7,16.2,0.0,0.0,0,1019.4,0,0,"",91
"2022-07-13 04:37:00",17.8,16.3,0.0,0.0,0,1019.3,0,1,"",91
"2022-07-13 04:38:00",17.8,16.3,0.0,0.0,0,1019.3,0,1,"",91
"2022-07-13 04:39:00",17.8,16.3,0.0,0.0,0,1019.3,0,1,"",91
"2022-07-13 04:40:00",17.8,16.3,0.0,0.0,0,1019.3,0,1,"",91
"2022-07-13 04:41:00",17.8,16.3,0.0,0.0,0,1019.3,0,1,"",91
"2022-07-13 04:42:00",17.8,16.3,0.0,0.0,0,1019.3,0,0,"",91
"2022-07-13 04:43:00",17.8,16.3,0.0,0.0,0,1019.3,0,1,"",91
"2022-07-13 04:44:00",17.8,16.3,0.0,0.0,0,1019.3,0,1,"",91
"2022-07-13 04:45:00",17.8,16.3,0.0,0.0,0,1019.3,0,0,"",91
"2022-07-13 04:46:00",17.8,16.3,0.0,0.0,0,1019.3,0,0,"",91
"2022-07-13 04:47:00",17.8,16.3,0.0,0.0,0,1019.3,0,1,"",91
"2022-07-13 04:48:00",17.8,16.3,0.0,0.0,0,1019.3,0,1,"",91
"2022-07-13 04:49:00",17.8,16.3,0.0,0.0,0,1019.4,0,0,"",91
"2022-07-13 04:50:00",17.9,16.4,0.0,0.0,0,1019.4,0,1,"",91
"2022-07-13 04:51:00",17.9,16.4,0.0,0.0,0,1019.4,0,1,"",91
"2022-07-13 04:52:00",17.9,16.4,0.0,0.0,0,1019.4,0,1,"",91
"2022-07-13 04:53:00",17.9,16.4,0.0,0.0,0,1019.3,0,1,"",91
"2022-07-13 04:54:00",17.9,16.4,0.0,0.0,0,1019.4,0,1,"",91
"2022-07-13 04:55:00",17.9,16.4,0.0,0.0,0,1019.3,0,1,"",91
"2022-07-13 04:56:00",17.9,16.4,0.0,0.0,0,1019.4,0,1,"",91
"2022-07-13 04:57:00",17.9,16.4,0.0,0.0,0,1019.4,0,1,"",91
"2022-07-13 04:58:00",17.9,16.4,0.0,0.0,0,1019.4,1,1,"",91
"2022-07-13 04:59:00",17.9,16.4,0.0,0.0,0,1019.4,0,1,"",91
"2022-07-13 05:00:00",17.9,16.4,0.0,0.0,0,1019.5,0,1,"",91
"2022-07-13 05:01:00",17.9,16.6,0.0,0.0,0,1019.4,0,1,"",92
"2022-07-13 05:02:00",17.9,16.6,0.0,0.0,0,1019.5,0,1,"",92
"2022-07-13 05:03:00",18.0,16.7,0.0,0.0,0,1019.5,0,1,"",92
"2022-07-13 05:04:00",18.0,16.5,0.0,0.0,0,1019.5,0,0,"",91
"2022-07-13 05:05:00",18.0,16.5,0.0,0.0,0,1019.4,0,0,"",91
"2022-07-13 05:06:00",18.0,16.5,0.0,0.0,0,1019.5,0,1,"",91
"2022-07-13 05:07:00",18.0,16.5,0.0,0.0,0,1019.4,0,1,"",91
"2022-07-13 05:08:00",18.0,16.5,0.0,0.0,0,1019.4,0,1,"",91
"2022-07-13 05:09:00",18.0,16.5,0.0,0.0,0,1019.5,0,1,"",91
"2022-07-13 05:10:00",18.0,16.5,0.0,0.0,0,1019.5,0,1,"",91
"2022-07-13 05:11:00",18.1,16.6,0.0,0.0,0,1019.4,0,1,"",91
"2022-07-13 05:12:00",18.1,16.6,0.0,0.0,0,1019.4,0,1,"",91
"2022-07-13 05:13:00",18.1,16.6,0.0,0.0,0,1019.5,0,0,"",91
"2022-07-13 05:14:00",18.1,16.6,0.0,0.0,0,1019.5,0,1,"",91
"2022-07-13 05:15:00",18.1,16.6,0.0,0.0,0,1019.5,0,1,"",91
"2022-07-13 05:16:00",18.1,16.6,0.0,0.0,0,1019.5,0,1,"",91
"2022-07-13 05:17:00",18.1,16.6,0.0,0.0,0,1019.5,0,1,"",91
"2022-07-13 05:18:00",18.1,16.6,0.0,0.0,0,1019.5,0,1,"",91
"2022-07-13 05:19:00",18.1,16.6,0.0,0.0,0,1019.5,0,1,"",91
"2022-07-13 05:20:00",18.1,16.6,0.0,0.0,0,1019.5,0,1,"",91
"2022-07-13 05:21:00",18.1,16.6,0.0,0.0,0,1019.5,0,1,"",91
"2022-07-13 05:22:00",18.1,16.6,0.0,0.0,0,1019.5,1,1,"",91
"2022-07-13 05:23:00",18.2,16.7,0.0,0.0,0,1019.5,0,1,"",91
"2022-07-13 05:24:00",18.2,16.7,0.0,0.0,5,1019.5,0,0,"",91
"2022-07-13 05:25:00",18.2,16.7,0.0,0.0,5,1019.5,0,0,"",91
"2022-07-13 05:26:00",18.2,16.7,0.0,0.0,5,1019.5,0,1,"",91
"2022-07-13 05:27:00",18.2,16.7,0.0,0.0,5,1019.5,0,1,"",91
"2022-07-13 05:28:00",18.2,16.7,0.0,0.0,5,1019.5,0,1,"",91
"2022-07-13 05:29:00",18.2,16.7,0.0,0.0,5,1019.5,0,1,"",91
"2022-07-13 05:30:00",18.2,16.7,0.0,0.0,7,1019.5,0,1,"",91
"2022-07-13 05:31:00",18.2,16.7,0.0,0.0,7,1019.5,0,0,"",91
"2022-07-13 05:32:00",18.2,16.7,0.0,0.0,7,1019.5,0,1,"",91
"2022-07-13 05:33:00",18.2,16.7,0.0,0.0,7,1019.5,0,1,"",91
"2022-07-13 05:34:00",18.2,16.7,0.0,0.0,9,1019.5,0,1,"",91
"2022-07-13 05:35:00",18.2,16.7,0.0,0.0,9,1019.5,0,1,"",91
"2022-07-13 05:36:00",18.2,16.7,0.0,0.0,11,1019.5,0,1,"",91
"2022-07-13 05:37:00",18.2,16.7,0.0,0.0,12,1019.5,0,1,"",91
"2022-07-13 05:38:00",18.3,16.8,0.0,0.0,12,1019.5,0,0,"",91
"2022-07-13 05:39:00",18.3,16.8,0.0,0.0,12,1019.5,0,0,"",91
"2022-07-13 05:40:00",18.3,16.8,0.0,0.0,11,1019.5,0,1,"",91
"2022-07-13 05:41:00",18.3,16.8,0.0,0.0,11,1019.6,0,1,"",91
"2022-07-13 05:42:00",18.3,16.8,0.0,0.0,11,1019.5,0,1,"",91
"2022-07-13 05:43:00",18.3,16.8,0.0,0.0,12,1019.5,0,1,"",91
"2022-07-13 05:44:00",18.3,16.8,0.0,0.0,12,1019.5,0,1,"",91
"2022-07-13 05:45:00",18.3,16.8,0.0,0.0,12,1019.5,0,0,"",91
"2022-07-13 05:46:00",18.3,16.8,0.0,0.0,12,1019.6,0,1,"",91
"2022-07-13 05:47:00",18.3,16.8,0.0,0.0,12,1019.5,0,1,"",91
"2022-07-13 05:48:00",18.3,16.8,0.0,0.0,12,1019.5,0,1,"",91
"2022-07-13 05:49:00",18.3,16.8,0.0,0.0,12,1019.6,0,1,"",91
"2022-07-13 05:50:00",18.4,16.9,0.0,0.0,12,1019.6,0,1,"",91
"2022-07-13 05:51:00",18.3,16.8,0.0,0.0,12,1019.6,0,1,"",91
"2022-07-13 05:52:00",18.3,16.8,0.0,0.0,12,1019.6,0,1,"",91
"2022-07-13 05:53:00",18.4,16.9,0.0,0.0,14,1019.6,0,1,"",91
"2022-07-13 05:54:00",18.4,16.9,0.0,0.0,14,1019.6,0,1,"",91
"2022-07-13 05:55:00",18.4,16.9,0.0,0.0,14,1019.6,0,1,"",91
"2022-07-13 05:56:00",18.4,16.9,0.0,0.0,16,1019.6,0,0,"",91
"2022-07-13 05:57:00",18.4,16.9,0.0,0.0,16,1019.6,0,1,"",91
"2022-07-13 05:58:00",18.4,16.9,0.0,0.0,16,1019.7,0,1,"",91
"2022-07-13 05:59:00",18.4,16.9,0.0,0.0,16,1019.6,0,1,"",91
"2022-07-13 06:00:00",18.4,16.9,0.0,0.0,16,1019.6,0,1,"",91
"2022-07-13 06:01:00",18.5,17.0,0.0,0.0,16,1019.7,0,1,"",91
"2022-07-13 06:02:00",18.4,16.9,0.0,0.0,16,1019.7,0,1,"",91
"2022-07-13 06:03:00",18.5,17.0,0.0,0.0,16,1019.6,0,0,"",91
"2022-07-13 06:04:00",18.5,17.0,0.0,0.0,16,1019.7,0,1,"",91
"2022-07-13 06:05:00",18.5,16.8,0.0,0.0,16,1019.6,0,0,"",90
"2022-07-13 06:06:00",18.6,16.9,0.0,0.0,18,1019.6,0,1,"",90
"2022-07-13 06:07:00",18.6,16.9,0.0,0.0,18,1019.6,0,1,"",90
"2022-07-13 06:08:00",18.6,16.9,0.0,0.0,19,1019.6,0,1,"",90
"2022-07-13 06:09:00",18.6,16.9,0.0,0.0,19,1019.6,0,1,"",90
"2022-07-13 06:10:00",18.6,16.9,0.0,0.0,19,1019.6,0,1,"",90
"2022-07-13 06:11:00",18.6,16.9,0.0,0.0,19,1019.6,0,1,"",90
"2022-07-13 06:12:00",18.6,16.9,0.0,0.0,19,1019.6,0,1,"",90
"2022-07-13 06:13:00",18.7,17.2,0.0,0.0,21,1019.6,0,0,"",91
"2022-07-13 06:14:00",18.7,17.2,0.0,0.0,21,1019.6,0,1,"",91
"2022-07-13 06:15:00",18.7,17.0,0.0,0.0,21,1019.6,0,1,"",90
"2022-07-13 06:16:00",18.7,17.0,0.0,0.0,21,1019.6,0,1,"",90
"2022-07-13 06:17:00",18.7,17.0,0.0,0.0,23,1019.6,0,1,"",90
"2022-07-13 06:18:00",18.7,17.0,0.0,0.0,23,1019.7,0,1,"",90
"2022-07-13 06:19:00",18.7,17.0,0.0,0.0,25,1019.6,0,1,"",90
"2022-07-13 06:20:00",18.7,17.0,0.0,0.0,25,1019.7,0,0,"",90
"2022-07-13 06:21:00",18.7,17.2,0.0,0.0,25,1019.7,0,1,"",91
"2022-07-13 06:22:00",18.7,17.2,0.0,0.0,25,1019.7,0,0,"",91
"2022-07-13 06:23:00",18.7,17.0,0.0,0.0,26,1019.7,1,1,"",90
"2022-07-13 06:24:00",18.7,17.0,0.0,0.0,26,1019.8,0,1,"",90
"2022-07-13 06:25:00",18.7,17.0,0.0,0.0,28,1019.7,0,1,"",90
"2022-07-13 06:26:00",18.8,17.1,0.0,0.0,28,1019.7,0,1,"",90
"2022-07-13 06:27:00",18.8,17.1,0.0,0.0,30,1019.7,0,1,"",90
"2022-07-13 06:28:00",18.8,17.1,0.0,0.0,32,1019.7,0,1,"",90
"2022-07-13 06:29:00",18.8,17.1,0.0,0.0,33,1019.7,0,0,"",90
"2022-07-13 06:30:00",18.8,17.1,0.0,0.0,33,1019.8,0,0,"",90
"2022-07-13 06:31:00",18.8,17.1,0.0,0.0,33,1019.8,0,1,"",90
"2022-07-13 06:32:00",18.9,17.2,0.0,0.0,35,1019.8,0,1,"",90
"2022-07-13 06:33:00",18.9,17.2,0.0,0.0,35,1019.8,0,1,"",90
"2022-07-13 06:34:00",18.9,17.2,0.0,0.0,37,1019.8,0,1,"",90
"2022-07-13 06:35:00",18.9,17.2,0.0,0.0,35,1019.8,0,1,"",90
"2022-07-13 06:36:00",18.9,17.2,0.0,0.0,35,1019.8,0,1,"",90
"2022-07-13 06:37:00",18.9,17.2,0.0,0.0,35,1019.9,0,1,"",90
"2022-07-13 06:38:00",19.0,17.3,0.0,0.0,35,1019.9,0,1,"",90
"2022-07-13 06:39:00",19.0,17.3,0.0,0.0,37,1019.9,0,1,"",90
"2022-07-13 06:40:00",19.0,17.3,0.0,0.0,37,1019.9,0,1,"",90
"2022-07-13 06:41:00",19.0,17.3,0.0,0.0,39,1019.9,0,1,"",90
"2022-07-13 06:42:00",19.0,17.3,0.0,0.0,39,1019.8,0,0,"",90
"2022-07-13 06:43:00",19.1,17.4,0.0,0.0,39,1019.8,0,1,"",90